Regional Weather Roundup
Issued by NWS Goodland, KS

Home | Current Version | Previous Version | Graphics & Text | Print | Product List | Glossary On
Versions: 1 2 3 4 5 6 7 8 9 10 11 12 13 14 15 16 17 18 19 20 21 22 23 24 25 26 27 28 29 30 31 32 33 34 35 36 37 38 39 40 41 42 43 44 45 46 47 48 49 50
000
ASUS43 KGLD 281508
RWRGLD

GOODLAND FORECAST AREA HOURLY WEATHER ROUNDUP
NATIONAL WEATHER SERVICE GOODLAND KS
900 AM MDT WED JUN 28 2017

...OFFICIAL OBSERVATIONS...

CITY           SKY/WX    TMP DP  RH WIND       PRES   REMARKS
GOODLAND KS    SUNNY     74  54  49 N15       29.86R
HILL CITY KS   SUNNY     79  67  66 SW15G25   29.77R
IMPERIAL NEB   SUNNY     76  48  37 NW15      29.83F
MCCOOK NEB     SUNNY     78  57  48 NW16      29.79R
AKRON CO       SUNNY     71  45  39 W8        29.95S
BURLINGTON CO  SUNNY     75  50  41 N17       29.89R
LIMON CO       SUNNY     73  44  35 N9        29.99S
$$

...UNOFFICIAL OBSERVATIONS...

CITY           SKY/WX    TMP DP  RH WIND       PRES   REMARKS
LENORA KS        N/A     79  32  18 MISG        N/A
NORTON KS      SUNNY     81  59  47 SW16      29.77S
SHARON SPRINGS   N/A     73  65  77 N8G15       N/A
TRENTON NEB      N/A     76  32  20 N6          N/A
KIT CARSON CO    N/A     77  48  35 MISG        N/A
YUMA CO        FAIR      70  37  30 NW6       29.91S
$$




USA.gov is the U.S. government's official web portal to all federal, state and local government web resources and services.